Location: Bouillancy
(49.1149°N, 2.9308°E)
Time: 23:19:26
(UTC+00:00)

Cosmos 909 Rocket - Pass Details

Date: 30 September 2020
Orbit: 991 x 2088 km, 65.9° (Epoch: 25 October)

Event Time Altitude Azimuth Distance (km) Brightness Sun altitude
Rises 19:59:50 0° 321° (NW) 3,861 8.2 -24.9°
Reaches altitude 10° 20:02:34 10° 317° (NW) 2,833 7.3 -25.3°
Maximum altitude 20:08:48 56° 241° (WSW) 1,167 4.5 -26.2°
Enters shadow 20:11:00 38° 185° (S) 1,481 4.7 -26.6°
